User: anonymous   Login
Location: Space Photons Observatory
(33.2428°N, 111.5467°W)
Time: 10:45:06
(UTC-07:00)
Language:

RESURS DK-1 - Orbit

View from above orbital plane
View from above orbital plane
View from above satellite
View from above satellite

Ground track
Ground track

The orbit data is extracted from the following two-line orbital elements,

1 29228U 06021A   14325.43210528  .00001665  00000-0  13768-3 0  4465
2 29228 069.9376 324.9307 0006521 313.6691 205.8912 15.00992603467162
Epoch (UTC): 21 November 2014 10:22:13
Eccentricity: 0.0006521
inclination: 69.9376°
perigee height: 559 km
apogee height: 568 km
right ascension of ascending node: 324.9307°
argument of perigee: 313.6691°
revolutions per day: 15.00992603
mean anomaly at epoch: 205.8912°
orbit number at epoch: 46716

The dashed part of the orbit path shows where the satellite is in the earth's shadow,  

DLR